GSAT0104 (PRN E20)

Last updated on June 17, 2019, 3:37 a.m. UTC

1 38858U 12055B   19167.31374489  .00000061  00000-0  00000+0 0  9994
2 38858  54.9344 171.8927 0004253 272.5098  87.4606  1.70473786 41509
UTC
Height (km)
Latitude
Longitude
Inclination
Orbital Period
UTC large
Height (km)
Speed (km/s)
/
Latitude / Longitude
Inclination (degrees)
Orbital Period (minutes)
Azimuth
Elevation
Range (km)
Doppler Factor
iOS Compass Heading
iOS Angle

Next 30 passes for location: Hong Kong

Rise time Rise Azimuth (degrees) Set time Set Azimuth (degrees) Duration Max altitude (degrees)

No matching passes for this satellites